Location: Caltech
(34.1382°N, 118.1253°W)
Time: 19:14:01
(UTC-07:00)

Gurwin Techsat 1B - Visible Passes

Search period start: 30 August 2014 00:00
Search period end: 09 September 2014 00:00
Orbit: 812 x 815 km, 98.5° (Epoch: 30 August)

Date Brightness Start Highest point End Pass type
(mag) Time Alt. Az. Time Alt. Az. Time Alt. Az.
30 Aug 10.9 02:41:09 10° NE 02:43:28 18° ENE 02:43:28 18° ENE visible
30 Aug 9.1 04:20:01 10° N 04:24:41 42° WNW 04:24:41 42° WNW visible
31 Aug 8.8 03:57:09 10° N 04:01:40 61° NNW 04:01:40 61° NNW visible
01 Sep 9.3 03:34:32 10° NNE 03:38:39 52° NE 03:38:39 52° NE visible
01 Sep 10.4 05:16:50 10° NW 05:19:09 13° WNW 05:19:52 13° WNW visible
02 Sep 10.1 03:12:09 10° NNE 03:15:38 33° ENE 03:15:38 33° ENE visible
02 Sep 9.9 04:52:52 10° NNW 04:56:47 21° WNW 04:56:51 21° WNW visible
03 Sep 10.8 02:50:07 10° NE 02:52:37 20° ENE 02:52:37 20° ENE visible
03 Sep 9.4 04:29:35 10° N 04:33:50 34° WNW 04:33:50 34° WNW visible
04 Sep 11.4 02:28:48 10° ENE 02:29:36 12° ENE 02:29:36 12° ENE visible
04 Sep 9.1 04:06:37 10° N 04:10:49 49° NNW 04:10:49 49° NNW visible
05 Sep 9.3 03:43:54 10° NNE 03:47:48 51° NNE 03:47:48 51° NNE visible
05 Sep 10.6 05:27:56 10° WNW 05:28:24 10° WNW 05:28:52 10° WNW visible
06 Sep 10.0 03:21:24 10° NNE 03:24:47 36° NE 03:24:47 36° NE visible
06 Sep 10.2 05:02:43 10° NNW 05:06:00 17° WNW 05:06:00 17° WNW visible
07 Sep 10.7 02:59:12 10° NE 03:01:46 23° ENE 03:01:46 23° ENE visible
07 Sep 9.7 04:39:13 10° NNW 04:42:59 27° NW 04:42:59 27° NW visible
08 Sep 11.2 02:37:29 10° NE 02:38:45 14° ENE 02:38:45 14° ENE visible
08 Sep 9.4 04:16:08 10° N 04:19:57 39° NW 04:19:57 39° NW visible
